| time (UTC) | temp C | wind direction | speed KPH | gust KPH | rain 1hr cm | rain 24hr cm | rain mn cm | humidity % | barometer mb |
| 20260902174659 | 35 | 352 | 1.6 | 4.8 | 0.00 | 0.00 | 0.00 | 59 | 1019.1 |
| 20260902174155 | 35 | 170 | 1.6 | 3.2 | 0.00 | 0.00 | 0.00 | 59 | 1018.9 |
| 20260902173650 | 35 | 110 | 1.6 | 3.2 | 0.00 | 0.00 | 0.00 | 58 | 1019.1 |
| 20260902173145 | 35 | 222 | 0.0 | 1.6 | 0.00 | 0.00 | 0.00 | 57 | 1019.0 |
| 20260902172639 | 35 | 223 | 0.0 | 1.6 | 0.00 | 0.00 | 0.00 | 57 | 1019.2 |
| 20260902172138 | 36 | 10 | 4.8 | 6.4 | 0.00 | 0.00 | 0.00 | 54 | 1019.0 |
| 20260902171634 | 36 | 198 | 0.0 | 3.2 | 0.00 | 0.00 | 0.00 | 57 | 1019.2 |
| 20260902171130 | 35 | 285 | 1.6 | 3.2 | 0.00 | 0.00 | 0.00 | 56 | 1019.0 |
| 20260902170625 | 35 | 308 | 3.2 | 11.3 | 0.00 | 0.00 | 0.00 | 57 | 1019.0 |
| 20260902170121 | 35 | 174 | 0.0 | 4.8 | 0.00 | 0.00 | 0.00 | 56 | 1019.0 |
| 20260902165620 | 35 | 258 | 1.6 | 3.2 | 0.00 | 0.00 | 0.00 | 57 | 1019.1 |
| 20260902165115 | 35 | 165 | 1.6 | 6.4 | 0.00 | 0.00 | 0.00 | 58 | 1019.2 |
| 20260902164610 | 35 | 304 | 3.2 | 3.2 | 0.00 | 0.00 | 0.00 | 56 | 1019.1 |
| 20260902164109 | 35 | 38 | 1.6 | 3.2 | 0.00 | 0.00 | 0.00 | 56 | 1019.1 |
| 20260902163605 | 34 | 301 | 1.6 | 3.2 | 0.00 | 0.00 | 0.00 | 59 | 1019.1 |
| 20260902163103 | 34 | 359 | 4.8 | 6.4 | 0.00 | 0.00 | 0.00 | 57 | 1019.2 |
| 20260902162603 | 35 | 245 | 3.2 | 3.2 | 0.00 | 0.00 | 0.00 | 60 | 1019.2 |
| 20260902162058 | 34 | 27 | 1.6 | 4.8 | 0.00 | 0.00 | 0.00 | 59 | 1019.2 |
| 20260902161552 | 34 | 140 | 1.6 | 9.7 | 0.00 | 0.00 | 0.00 | 60 | 1019.4 |
| 20260902161048 | 34 | 279 | 3.2 | 6.4 | 0.00 | 0.00 | 0.00 | 61 | 1019.1 |
| 20260902160544 | 35 | 349 | 1.6 | 6.4 | 0.00 | 0.00 | 0.00 | 59 | 1019.3 |
| 20260902160039 | 35 | 229 | 1.6 | 3.2 | 0.00 | 0.00 | 0.00 | 59 | 1019.2 |
| 20260902155532 | 34 | 245 | 3.2 | 6.4 | 0.00 | 0.00 | 0.00 | 61 | 1019.4 |
| 20260902155031 | 34 | 222 | 1.6 | 1.6 | 0.00 | 0.00 | 0.00 | 59 | 1019.6 |
| 20260902154527 | 33 | 15 | 1.6 | 6.4 | 0.00 | 0.00 | 0.00 | 63 | 1019.4 |
| 20260902154021 | 34 | 24 | 1.6 | 1.6 | 0.00 | 0.00 | 0.00 | 61 | 1019.4 |
| 20260902153520 | 34 | 235 | 0.0 | 3.2 | 0.00 | 0.00 | 0.00 | 61 | 1019.4 |
| 20260902153015 | 34 | 252 | 1.6 | 6.4 | 0.00 | 0.00 | 0.00 | 63 | 1019.3 |
| 20260902152512 | 33 | 235 | 0.0 | 1.6 | 0.00 | 0.00 | 0.00 | 63 | 1019.4 |
| 20260902152007 | 33 | 0 | 0.0 | 4.8 | 0.00 | 0.00 | 0.00 | 65 | 1019.3 |
| 20260902151503 | 33 | 251 | 1.6 | 4.8 | 0.00 | 0.00 | 0.00 | 66 | 1019.6 |
| 20260902150956 | 33 | 257 | 3.2 | 4.8 | 0.00 | 0.00 | 0.00 | 63 | 1019.5 |
| 20260902150452 | 33 | 237 | 1.6 | 3.2 | 0.00 | 0.00 | 0.00 | 65 | 1019.5 |
| 20260902145952 | 32 | 350 | 3.2 | 9.7 | 0.00 | 0.00 | 0.00 | 65 | 1019.4 |
| 20260902145447 | 33 | 269 | 0.0 | 3.2 | 0.00 | 0.00 | 0.00 | 64 | 1019.4 |
| 20260902144941 | 32 | 273 | 1.6 | 3.2 | 0.00 | 0.00 | 0.00 | 67 | 1019.6 |
| 20260902144437 | 33 | 307 | 4.8 | 11.3 | 0.00 | 0.00 | 0.00 | 66 | 1019.6 |
| 20260902143932 | 32 | 238 | 3.2 | 4.8 | 0.00 | 0.00 | 0.00 | 67 | 1019.6 |
| 20260902143427 | 32 | 239 | 0.0 | 3.2 | 0.00 | 0.00 | 0.00 | 69 | 1019.6 |
| 20260902142922 | 32 | 10 | 4.8 | 6.4 | 0.00 | 0.00 | 0.00 | 68 | 1019.6 |
| 20260902142419 | 32 | 332 | 1.6 | 6.4 | 0.00 | 0.00 | 0.00 | 68 | 1019.7 |
| 20260902141914 | 31 | 342 | 1.6 | 3.2 | 0.00 | 0.00 | 0.00 | 68 | 1019.5 |
| 20260902141409 | 31 | 120 | 3.2 | 3.2 | 0.00 | 0.00 | 0.00 | 69 | 1019.5 |
| 20260902140908 | 31 | 282 | 1.6 | 3.2 | 0.00 | 0.00 | 0.00 | 69 | 1019.4 |
| 20260902140404 | 31 | 357 | 0.0 | 4.8 | 0.00 | 0.00 | 0.00 | 72 | 1019.5 |
| 20260902135858 | 31 | 220 | 0.0 | 4.8 | 0.00 | 0.00 | 0.00 | 71 | 1019.2 |
| 20260902135354 | 31 | 224 | 0.0 | 3.2 | 0.00 | 0.00 | 0.00 | 75 | 1019.3 |
| 20260902134853 | 30 | 172 | 1.6 | 3.2 | 0.00 | 0.00 | 0.00 | 74 | 1019.2 |
| 20260902134349 | 30 | 352 | 4.8 | 6.4 | 0.00 | 0.00 | 0.00 | 73 | 1019.1 |
| 20260902133843 | 30 | 17 | 0.0 | 1.6 | 0.00 | 0.00 | 0.00 | 74 | 1019.1 |
| 20260902133343 | 30 | 10 | 3.2 | 3.2 | 0.00 | 0.00 | 0.00 | 75 | 1019.1 |
| 20260902132838 | 29 | 33 | 1.6 | 4.8 | 0.00 | 0.00 | 0.00 | 76 | 1018.9 |
| 20260902132333 | 30 | 37 | 4.8 | 4.8 | 0.00 | 0.00 | 0.00 | 75 | 1019.1 |
| 20260902131829 | 30 | 351 | 4.8 | 6.4 | 0.00 | 0.00 | 0.00 | 75 | 1019.0 |
| 20260902131326 | 29 | 217 | 0.0 | 0.0 | 0.00 | 0.00 | 0.00 | 75 | 1019.2 |
| 20260902130825 | 29 | 198 | 1.6 | 3.2 | 0.00 | 0.00 | 0.00 | 75 | 1019.0 |
| 20260902130321 | 29 | 16 | 0.0 | 1.6 | 0.00 | 0.00 | 0.00 | 75 | 1019.1 |
| 20260902125816 | 28 | 184 | 1.6 | 4.8 | 0.00 | 0.00 | 0.00 | 76 | 1019.1 |
| 20260902125312 | 30 | 280 | 1.6 | 3.2 | 0.00 | 0.00 | 0.00 | 75 | 1019.0 |
| 20260902124808 | 29 | 354 | 1.6 | 1.6 | 0.00 | 0.00 | 0.00 | 75 | 1019.0 |
| 20260902124303 | 28 | 1 | 0.0 | 1.6 | 0.00 | 0.00 | 0.00 | 76 | 1019.1 |
| 20260902123758 | 28 | 12 | 1.6 | 6.4 | 0.00 | 0.00 | 0.00 | 77 | 1019.1 |
| 20260902123254 | 28 | 355 | 3.2 | 6.4 | 0.00 | 0.00 | 0.00 | 78 | 1019.0 |
| 20260902122752 | 28 | 348 | 1.6 | 4.8 | 0.00 | 0.00 | 0.00 | 78 | 1018.9 |
| 20260902122249 | 28 | 233 | 0.0 | 3.2 | 0.00 | 0.00 | 0.00 | 78 | 1019.0 |
| 20260902121743 | 27 | 336 | 4.8 | 4.8 | 0.00 | 0.00 | 0.00 | 78 | 1018.8 |
| 20260902121238 | 27 | 329 | 0.0 | 4.8 | 0.00 | 0.00 | 0.00 | 79 | 1019.0 |
| 20260902120733 | 27 | 346 | 4.8 | 11.3 | 0.00 | 0.00 | 0.00 | 79 | 1018.8 |
| 20260902120229 | 27 | 318 | 3.2 | 3.2 | 0.00 | 0.00 | 0.00 | 80 | 1018.9 |
| 20260902115724 | 26 | 359 | 1.6 | 3.2 | 0.00 | 0.00 | 0.00 | 82 | 1018.9 |
| 20260902115220 | 26 | 257 | 0.0 | 3.2 | 0.00 | 0.00 | 0.00 | 84 | 1019.0 |
| 20260902114716 | 25 | 3 | 1.6 | 1.6 | 0.00 | 0.00 | 0.00 | 85 | 1018.9 |
| 20260902114211 | 25 | 230 | 0.0 | 0.0 | 0.00 | 0.00 | 0.00 | 86 | 1018.9 |
| 20260902113706 | 25 | 232 | 0.0 | 0.0 | 0.00 | 0.00 | 0.00 | 87 | 1018.8 |
| 20260902113201 | 25 | 232 | 0.0 | 0.0 | 0.00 | 0.00 | 0.00 | 86 | 1018.9 |
| 20260902112701 | 25 | 230 | 0.0 | 0.0 | 0.00 | 0.00 | 0.00 | 86 | 1018.9 |
| 20260902112159 | 25 | 232 | 0.0 | 0.0 | 0.00 | 0.00 | 0.00 | 87 | 1018.8 |
| 20260902111653 | 25 | 255 | 0.0 | 0.0 | 0.00 | 0.00 | 0.00 | 86 | 1018.9 |
| 20260902111149 | 25 | 260 | 0.0 | 1.6 | 0.00 | 0.00 | 0.00 | 86 | 1018.8 |
| 20260902110645 | 25 | 255 | 0.0 | 0.0 | 0.00 | 0.00 | 0.00 | 86 | 1018.9 |
| 20260902110141 | 25 | 243 | 0.0 | 0.0 | 0.00 | 0.00 | 0.00 | 86 | 1018.9 |
| 20260902105640 | 25 | 244 | 0.0 | 0.0 | 0.00 | 0.00 | 0.00 | 86 | 1018.9 |
| 20260902105136 | 25 | 251 | 0.0 | 0.0 | 0.00 | 0.00 | 0.00 | 85 | 1018.8 |
| 20260902104631 | 25 | 254 | 0.0 | 0.0 | 0.00 | 0.00 | 0.00 | 85 | 1018.7 |
| 20260902104126 | 25 | 258 | 0.0 | 1.6 | 0.00 | 0.00 | 0.00 | 84 | 1018.7 |
| 20260902103625 | 25 | 263 | 0.0 | 0.0 | 0.00 | 0.00 | 0.00 | 84 | 1018.7 |
| 20260902103121 | 25 | 264 | 0.0 | 0.0 | 0.00 | 0.00 | 0.00 | 84 | 1018.6 |
| 20260902102617 | 25 | 256 | 0.0 | 0.0 | 0.00 | 0.00 | 0.00 | 85 | 1018.5 |
| 20260902102114 | 25 | 239 | 0.0 | 0.0 | 0.00 | 0.00 | 0.00 | 84 | 1018.5 |
| 20260902101609 | 25 | 248 | 0.0 | 0.0 | 0.00 | 0.00 | 0.00 | 83 | 1018.4 |
| 20260902101109 | 26 | 247 | 0.0 | 0.0 | 0.00 | 0.00 | 0.00 | 83 | 1018.2 |
| 20260902100603 | 26 | 247 | 0.0 | 0.0 | 0.00 | 0.00 | 0.00 | 82 | 1018.3 |
| 20260902100058 | 26 | 239 | 0.0 | 0.0 | 0.00 | 0.00 | 0.00 | 82 | 1018.4 |
| 20260902095557 | 26 | 239 | 0.0 | 0.0 | 0.00 | 0.00 | 0.00 | 82 | 1018.1 |
| 20260902095056 | 26 | 247 | 0.0 | 0.0 | 0.00 | 0.00 | 0.00 | 80 | 1018.3 |
| 20260902094546 | 26 | 250 | 0.0 | 0.0 | 0.00 | 0.00 | 0.00 | 80 | 1018.2 |
| 20260902094042 | 26 | 219 | 0.0 | 0.0 | 0.00 | 0.00 | 0.00 | 79 | 1018.2 |
| 20260902093536 | 26 | 307 | 0.0 | 0.0 | 0.00 | 0.00 | 0.00 | 79 | 1018.3 |
| 20260902093031 | 26 | 250 | 0.0 | 0.0 | 0.00 | 0.00 | 0.00 | 79 | 1018.1 |
| 20260902092526 | 27 | 242 | 0.0 | 0.0 | 0.00 | 0.00 | 0.00 | 78 | 1018.1 |
| 20260902092021 | 27 | 239 | 0.0 | 0.0 | 0.00 | 0.00 | 0.00 | 77 | 1018.0 |
| 20260902091516 | 27 | 7 | 3.2 | 3.2 | 0.00 | 0.00 | 0.00 | 77 | 1018.0 |
| 20260902091012 | 27 | 326 | 0.0 | 1.6 | 0.00 | 0.00 | 0.00 | 77 | 1018.1 |
| 20260902090508 | 27 | 357 | 4.8 | 4.8 | 0.00 | 0.00 | 0.00 | 76 | 1018.1 |
| 20260902090007 | 27 | 11 | 3.2 | 3.2 | 0.00 | 0.00 | 0.00 | 77 | 1018.0 |
| 20260902085502 | 27 | 31 | 1.6 | 1.6 | 0.00 | 0.00 | 0.00 | 76 | 1018.0 |
| 20260902084956 | 27 | 207 | 3.2 | 4.8 | 0.00 | 0.00 | 0.00 | 77 | 1018.1 |
| 20260902084453 | 27 | 340 | 4.8 | 4.8 | 0.00 | 0.00 | 0.00 | 77 | 1018.2 |
| 20260902083949 | 26 | 247 | 1.6 | 1.6 | 0.00 | 0.00 | 0.00 | 78 | 1018.2 |
| 20260902083448 | 26 | 346 | 3.2 | 4.8 | 0.00 | 0.00 | 0.00 | 80 | 1017.9 |
| 20260902082943 | 25 | 246 | 0.0 | 0.0 | 0.00 | 0.00 | 0.00 | 86 | 1018.1 |
| 20260902082439 | 25 | 250 | 0.0 | 3.2 | 0.00 | 0.00 | 0.00 | 86 | 1018.0 |
| 20260902081935 | 25 | 268 | 0.0 | 1.6 | 0.00 | 0.00 | 0.00 | 87 | 1017.9 |
| 20260902081431 | 25 | 331 | 0.0 | 3.2 | 0.00 | 0.00 | 0.00 | 89 | 1018.1 |
| 20260902080926 | 25 | 279 | 1.6 | 1.6 | 0.00 | 0.00 | 0.00 | 90 | 1017.8 |
| 20260902080422 | 24 | 273 | 0.0 | 4.8 | 0.00 | 0.00 | 0.00 | 92 | 1017.8 |
| 20260902075922 | 23 | 1 | 0.0 | 1.6 | 0.00 | 0.00 | 0.00 | 94 | 1017.8 |
| 20260902075418 | 23 | 303 | 0.0 | 0.0 | 0.00 | 0.00 | 0.00 | 95 | 1017.9 |
| 20260902074913 | 23 | 242 | 0.0 | 0.0 | 0.00 | 0.00 | 0.00 | 96 | 1018.0 |
| 20260902074409 | 23 | 250 | 0.0 | 0.0 | 0.00 | 0.00 | 0.00 | 96 | 1017.9 |
| 20260902073903 | 23 | 250 | 0.0 | 0.0 | 0.00 | 0.00 | 0.00 | 96 | 1017.9 |
| 20260902073400 | 23 | 230 | 0.0 | 0.0 | 0.00 | 0.00 | 0.00 | 96 | 1018.0 |
| 20260902072855 | 23 | 224 | 0.0 | 0.0 | 0.00 | 0.00 | 0.00 | 96 | 1017.9 |
| 20260902072351 | 23 | 224 | 0.0 | 0.0 | 0.00 | 0.00 | 0.00 | 96 | 1018.0 |
| 20260902071848 | 23 | 224 | 0.0 | 0.0 | 0.00 | 0.00 | 0.00 | 96 | 1017.9 |
| 20260902071347 | 23 | 227 | 0.0 | 0.0 | 0.00 | 0.00 | 0.00 | 96 | 1017.9 |
| 20260902070843 | 23 | 239 | 0.0 | 0.0 | 0.00 | 0.00 | 0.00 | 96 | 1018.0 |
| 20260902070338 | 23 | 239 | 0.0 | 0.0 | 0.00 | 0.00 | 0.00 | 96 | 1018.0 |
| 20260902065836 | 23 | 239 | 0.0 | 0.0 | 0.00 | 0.00 | 0.00 | 96 | 1018.0 |
| 20260902065332 | 23 | 258 | 0.0 | 0.0 | 0.00 | 0.00 | 0.00 | 96 | 1018.0 |
| 20260902064827 | 23 | 258 | 0.0 | 0.0 | 0.00 | 0.00 | 0.00 | 96 | 1018.0 |
| 20260902064323 | 23 | 258 | 0.0 | 0.0 | 0.00 | 0.00 | 0.00 | 96 | 1017.9 |
| 20260902063818 | 23 | 258 | 0.0 | 0.0 | 0.00 | 0.00 | 0.00 | 96 | 1017.7 |
| 20260902063313 | 23 | 258 | 0.0 | 0.0 | 0.00 | 0.00 | 0.00 | 96 | 1017.9 |
| 20260902062807 | 23 | 258 | 0.0 | 0.0 | 0.00 | 0.00 | 0.00 | 96 | 1017.8 |
| 20260902062305 | 23 | 239 | 0.0 | 0.0 | 0.00 | 0.00 | 0.00 | 96 | 1017.6 |
| 20260902061801 | 23 | 250 | 0.0 | 0.0 | 0.00 | 0.00 | 0.00 | 96 | 1017.9 |
| 20260902061256 | 23 | 250 | 0.0 | 0.0 | 0.00 | 0.00 | 0.00 | 96 | 1017.9 |
| 20260902060754 | 24 | 250 | 0.0 | 0.0 | 0.00 | 0.00 | 0.00 | 95 | 1017.8 |
| 20260902060249 | 24 | 242 | 0.0 | 0.0 | 0.00 | 0.00 | 0.00 | 95 | 1017.6 |
| 20260902055744 | 24 | 240 | 0.0 | 0.0 | 0.00 | 0.00 | 0.00 | 95 | 1017.7 |
| 20260902055240 | 24 | 240 | 0.0 | 0.0 | 0.00 | 0.00 | 0.00 | 95 | 1017.8 |
| 20260902054735 | 24 | 241 | 0.0 | 0.0 | 0.00 | 0.00 | 0.00 | 94 | 1017.8 |
| 20260902054230 | 24 | 240 | 0.0 | 0.0 | 0.00 | 0.00 | 0.00 | 94 | 1017.5 |
| 20260902053726 | 24 | 240 | 0.0 | 0.0 | 0.00 | 0.00 | 0.00 | 94 | 1017.8 |
| 20260902053220 | 24 | 238 | 0.0 | 0.0 | 0.00 | 0.00 | 0.00 | 94 | 1017.7 |
| 20260902052719 | 25 | 238 | 0.0 | 0.0 | 0.00 | 0.00 | 0.00 | 93 | 1017.7 |
| 20260902052215 | 25 | 239 | 0.0 | 0.0 | 0.00 | 0.00 | 0.00 | 93 | 1018.0 |
| 20260902051714 | 25 | 239 | 0.0 | 0.0 | 0.00 | 0.00 | 0.00 | 93 | 1018.0 |
| 20260902051209 | 25 | 239 | 0.0 | 0.0 | 0.00 | 0.00 | 0.00 | 93 | 1017.8 |
| 20260902050704 | 25 | 239 | 0.0 | 0.0 | 0.00 | 0.00 | 0.00 | 93 | 1017.9 |
| 20260902050159 | 25 | 239 | 0.0 | 0.0 | 0.00 | 0.00 | 0.00 | 93 | 1017.8 |
| 20260902045653 | 25 | 240 | 0.0 | 0.0 | 0.00 | 0.00 | 0.00 | 93 | 1017.8 |
| 20260902045149 | 25 | 242 | 0.0 | 0.0 | 0.00 | 0.00 | 0.00 | 92 | 1017.8 |
| 20260902044644 | 25 | 242 | 0.0 | 0.0 | 0.00 | 0.00 | 0.00 | 92 | 1017.7 |
| 20260902044140 | 25 | 242 | 0.0 | 0.0 | 0.00 | 0.00 | 0.00 | 92 | 1017.8 |
| 20260902043635 | 25 | 240 | 0.0 | 0.0 | 0.00 | 0.00 | 0.00 | 91 | 1017.9 |
| 20260902043130 | 25 | 240 | 0.0 | 0.0 | 0.00 | 0.00 | 0.00 | 91 | 1017.5 |
| 20260902042629 | 25 | 240 | 0.0 | 0.0 | 0.00 | 0.00 | 0.00 | 91 | 1017.6 |
| 20260902042125 | 25 | 242 | 0.0 | 0.0 | 0.00 | 0.00 | 0.00 | 91 | 1017.8 |
| 20260902041625 | 25 | 242 | 0.0 | 0.0 | 0.00 | 0.00 | 0.00 | 91 | 1017.6 |
| 20260902041120 | 25 | 242 | 0.0 | 0.0 | 0.00 | 0.00 | 0.00 | 91 | 1017.5 |
| 20260902040619 | 25 | 242 | 0.0 | 0.0 | 0.00 | 0.00 | 0.00 | 91 | 1017.5 |
| 20260902040114 | 25 | 242 | 0.0 | 0.0 | 0.00 | 0.00 | 0.00 | 91 | 1017.5 |
| 20260902035613 | 25 | 242 | 0.0 | 0.0 | 0.00 | 0.00 | 0.00 | 91 | 1017.4 |
| 20260902035108 | 25 | 240 | 0.0 | 0.0 | 0.00 | 0.00 | 0.00 | 91 | 1017.5 |
| 20260902034607 | 25 | 243 | 0.0 | 0.0 | 0.00 | 0.00 | 0.00 | 91 | 1017.5 |
| 20260902034107 | 25 | 248 | 0.0 | 0.0 | 0.00 | 0.00 | 0.00 | 91 | 1017.3 |
| 20260902033606 | 25 | 235 | 0.0 | 0.0 | 0.00 | 0.00 | 0.00 | 91 | 1017.3 |
| 20260902033101 | 25 | 231 | 0.0 | 0.0 | 0.00 | 0.00 | 0.00 | 91 | 1017.2 |
| 20260902032600 | 25 | 231 | 0.0 | 0.0 | 0.00 | 0.00 | 0.00 | 91 | 1017.1 |
| 20260902032055 | 25 | 240 | 0.0 | 0.0 | 0.00 | 0.00 | 0.00 | 91 | 1017.0 |
| 20260902031549 | 25 | 240 | 0.0 | 0.0 | 0.00 | 0.00 | 0.00 | 90 | 1017.0 |
| 20260902031046 | 25 | 242 | 0.0 | 0.0 | 0.00 | 0.00 | 0.00 | 90 | 1017.3 |
| 20260902030545 | 25 | 240 | 0.0 | 0.0 | 0.00 | 0.00 | 0.00 | 90 | 1017.3 |
| 20260902030040 | 25 | 235 | 0.0 | 0.0 | 0.00 | 0.00 | 0.00 | 89 | 1017.1 |
| 20260902025540 | 26 | 235 | 0.0 | 0.0 | 0.00 | 0.00 | 0.00 | 88 | 1017.2 |
| 20260902025035 | 26 | 235 | 0.0 | 0.0 | 0.00 | 0.00 | 0.00 | 88 | 1017.0 |
| 20260902024531 | 26 | 235 | 0.0 | 0.0 | 0.00 | 0.00 | 0.00 | 88 | 1017.1 |
| 20260902024030 | 26 | 235 | 0.0 | 0.0 | 0.00 | 0.00 | 0.00 | 88 | 1017.3 |
| 20260902023526 | 26 | 212 | 0.0 | 0.0 | 0.00 | 0.00 | 0.00 | 88 | 1017.3 |
| 20260902023021 | 26 | 213 | 0.0 | 0.0 | 0.00 | 0.00 | 0.00 | 87 | 1017.2 |
| 20260902022515 | 26 | 211 | 0.0 | 0.0 | 0.00 | 0.00 | 0.00 | 87 | 1017.3 |
| 20260902022011 | 26 | 243 | 0.0 | 0.0 | 0.00 | 0.00 | 0.00 | 87 | 1017.3 |
| 20260902021507 | 26 | 243 | 0.0 | 0.0 | 0.00 | 0.00 | 0.00 | 87 | 1017.3 |
| 20260902021002 | 26 | 243 | 0.0 | 0.0 | 0.00 | 0.00 | 0.00 | 87 | 1017.2 |
| 20260902020457 | 26 | 243 | 0.0 | 0.0 | 0.00 | 0.00 | 0.00 | 86 | 1017.0 |
| 20260902015953 | 26 | 243 | 0.0 | 0.0 | 0.00 | 0.00 | 0.00 | 86 | 1017.2 |
| 20260902015448 | 26 | 242 | 0.0 | 0.0 | 0.00 | 0.00 | 0.00 | 85 | 1017.1 |
| 20260902014944 | 26 | 242 | 0.0 | 0.0 | 0.00 | 0.00 | 0.00 | 85 | 1016.8 |
| 20260902014440 | 26 | 243 | 0.0 | 0.0 | 0.00 | 0.00 | 0.00 | 84 | 1016.9 |
| 20260902013939 | 26 | 233 | 0.0 | 0.0 | 0.00 | 0.00 | 0.00 | 83 | 1016.9 |
| 20260902013435 | 27 | 233 | 0.0 | 0.0 | 0.00 | 0.00 | 0.00 | 83 | 1016.7 |
| 20260902012930 | 27 | 233 | 0.0 | 0.0 | 0.00 | 0.00 | 0.00 | 82 | 1016.7 |
| 20260902012426 | 27 | 233 | 0.0 | 0.0 | 0.00 | 0.00 | 0.00 | 82 | 1016.6 |
| 20260902011921 | 27 | 233 | 0.0 | 0.0 | 0.00 | 0.00 | 0.00 | 81 | 1016.4 |
| 20260902011411 | 27 | 233 | 0.0 | 0.0 | 0.00 | 0.00 | 0.00 | 81 | 1016.4 |
| 20260902010910 | 27 | 233 | 0.0 | 0.0 | 0.00 | 0.00 | 0.00 | 81 | 1016.4 |
| 20260902010405 | 27 | 233 | 0.0 | 0.0 | 0.00 | 0.00 | 0.00 | 79 | 1016.4 |
| 20260902005904 | 27 | 233 | 0.0 | 0.0 | 0.00 | 0.00 | 0.00 | 79 | 1016.4 |
| 20260902005359 | 27 | 233 | 0.0 | 0.0 | 0.00 | 0.00 | 0.00 | 79 | 1016.4 |
| 20260902004855 | 27 | 233 | 0.0 | 0.0 | 0.00 | 0.00 | 0.00 | 77 | 1016.2 |
| 20260902004354 | 27 | 233 | 0.0 | 0.0 | 0.00 | 0.00 | 0.00 | 77 | 1016.4 |
| 20260902003849 | 27 | 233 | 0.0 | 0.0 | 0.00 | 0.00 | 0.00 | 77 | 1016.2 |
| 20260902003344 | 28 | 233 | 0.0 | 0.0 | 0.00 | 0.00 | 0.00 | 77 | 1016.0 |
| 20260902002840 | 28 | 233 | 0.0 | 0.0 | 0.00 | 0.00 | 0.00 | 76 | 1016.1 |
| 20260902002339 | 28 | 233 | 0.0 | 0.0 | 0.00 | 0.00 | 0.00 | 76 | 1016.0 |
| 20260902001835 | 28 | 233 | 0.0 | 0.0 | 0.00 | 0.00 | 0.00 | 76 | 1016.0 |
| 20260902001335 | 28 | 233 | 0.0 | 0.0 | 0.00 | 0.00 | 0.00 | 76 | 1015.9 |
| 20260902000831 | 28 | 233 | 0.0 | 0.0 | 0.00 | 0.00 | 0.00 | 73 | 1015.8 |
| 20260902000330 | 28 | 233 | 0.0 | 0.0 | 0.00 | 0.00 | 0.00 | 73 | 1016.1 |
| 20260901235825 | 28 | 231 | 0.0 | 0.0 | 0.00 | 0.00 | 0.00 | 72 | 1016.0 |
| 20260901235325 | 29 | 231 | 0.0 | 0.0 | 0.00 | 0.00 | 0.00 | 72 | 1015.9 |
| 20260901234820 | 29 | 231 | 0.0 | 0.0 | 0.00 | 0.00 | 0.00 | 72 | 1015.8 |
| 20260901234314 | 30 | 231 | 0.0 | 0.0 | 0.00 | 0.00 | 0.00 | 71 | 1016.0 |
| 20260901233810 | 30 | 233 | 0.0 | 0.0 | 0.00 | 0.00 | 0.00 | 70 | 1016.0 |
| 20260901233305 | 30 | 231 | 0.0 | 0.0 | 0.00 | 0.00 | 0.00 | 69 | 1015.8 |
| 20260901232800 | 30 | 230 | 0.0 | 0.0 | 0.00 | 0.00 | 0.00 | 67 | 1015.9 |
| 20260901232249 | 30 | 227 | 0.0 | 0.0 | 0.00 | 0.00 | 0.00 | 67 | 1016.0 |
| 20260901231745 | 31 | 223 | 0.0 | 0.0 | 0.00 | 0.00 | 0.00 | 65 | 1016.1 |
| 20260901231236 | 31 | 221 | 0.0 | 0.0 | 0.00 | 0.00 | 0.00 | 64 | 1016.1 |
| 20260901230732 | 31 | 217 | 0.0 | 0.0 | 0.00 | 0.00 | 0.00 | 62 | 1016.2 |
| 20260901230231 | 31 | 218 | 0.0 | 0.0 | 0.00 | 0.00 | 0.00 | 61 | 1016.3 |
| 20260901225727 | 32 | 235 | 0.0 | 0.0 | 0.00 | 0.00 | 0.00 | 60 | 1016.2 |
| 20260901225221 | 32 | 239 | 0.0 | 0.0 | 0.00 | 0.00 | 0.00 | 59 | 1016.4 |
| 20260901224717 | 32 | 216 | 0.0 | 0.0 | 0.00 | 0.00 | 0.00 | 57 | 1016.5 |
| 20260901224213 | 33 | 209 | 0.0 | 0.0 | 0.00 | 0.00 | 0.00 | 55 | 1016.4 |
| 20260901223708 | 33 | 210 | 0.0 | 0.0 | 0.00 | 0.00 | 0.00 | 54 | 1016.4 |
| 20260901223203 | 33 | 202 | 0.0 | 0.0 | 0.00 | 0.00 | 0.00 | 53 | 1016.4 |
| 20260901222700 | 33 | 216 | 0.0 | 0.0 | 0.00 | 0.00 | 0.00 | 53 | 1016.3 |
| 20260901222155 | 33 | 224 | 0.0 | 0.0 | 0.00 | 0.00 | 0.00 | 52 | 1016.5 |
| 20260901221651 | 34 | 215 | 0.0 | 0.0 | 0.00 | 0.00 | 0.00 | 52 | 1016.6 |
| 20260901221147 | 34 | 201 | 0.0 | 0.0 | 0.00 | 0.00 | 0.00 | 52 | 1016.6 |
| 20260901220646 | 34 | 229 | 0.0 | 0.0 | 0.00 | 0.00 | 0.00 | 50 | 1016.6 |
| 20260901220145 | 35 | 233 | 0.0 | 0.0 | 0.00 | 0.00 | 0.00 | 52 | 1016.5 |
| 20260901215644 | 35 | 261 | 1.6 | 1.6 | 0.00 | 0.00 | 0.00 | 50 | 1016.5 |
| 20260901215139 | 35 | 263 | 1.6 | 1.6 | 0.00 | 0.00 | 0.00 | 49 | 1016.5 |
| 20260901214637 | 36 | 235 | 0.0 | 0.0 | 0.00 | 0.00 | 0.00 | 46 | 1016.5 |
| 20260901214136 | 36 | 228 | 0.0 | 0.0 | 0.00 | 0.00 | 0.00 | 46 | 1016.5 |
| 20260901213631 | 35 | 274 | 0.0 | 1.6 | 0.00 | 0.00 | 0.00 | 46 | 1016.5 |
| 20260901213125 | 36 | 243 | 0.0 | 1.6 | 0.00 | 0.00 | 0.00 | 48 | 1016.6 |
| 20260901212620 | 36 | 240 | 0.0 | 1.6 | 0.00 | 0.00 | 0.00 | 47 | 1016.6 |
| 20260901212116 | 36 | 225 | 0.0 | 1.6 | 0.00 | 0.00 | 0.00 | 46 | 1016.6 |
| 20260901211610 | 36 | 247 | 0.0 | 0.0 | 0.00 | 0.00 | 0.00 | 46 | 1016.6 |
| 20260901211107 | 36 | 238 | 1.6 | 4.8 | 0.00 | 0.00 | 0.00 | 48 | 1016.7 |
| 20260901210603 | 36 | 257 | 0.0 | 3.2 | 0.00 | 0.00 | 0.00 | 48 | 1016.7 |
| 20260901210058 | 36 | 240 | 0.0 | 1.6 | 0.00 | 0.00 | 0.00 | 48 | 1016.7 |
| 20260901205553 | 36 | 12 | 3.2 | 3.2 | 0.00 | 0.00 | 0.00 | 46 | 1016.8 |
| 20260901205048 | 36 | 3 | 0.0 | 1.6 | 0.00 | 0.00 | 0.00 | 46 | 1016.7 |
| 20260901204544 | 36 | 225 | 0.0 | 0.0 | 0.00 | 0.00 | 0.00 | 46 | 1016.8 |
| 20260901204038 | 36 | 17 | 1.6 | 1.6 | 0.00 | 0.00 | 0.00 | 47 | 1016.7 |
| 20260901203533 | 36 | 235 | 0.0 | 1.6 | 0.00 | 0.00 | 0.00 | 47 | 1016.8 |
| 20260901203028 | 36 | 228 | 0.0 | 1.6 | 0.00 | 0.00 | 0.00 | 46 | 1017.0 |
| 20260901202523 | 36 | 225 | 0.0 | 4.8 | 0.00 | 0.00 | 0.00 | 46 | 1016.9 |
| 20260901202019 | 36 | 318 | 1.6 | 3.2 | 0.00 | 0.00 | 0.00 | 46 | 1017.0 |
| 20260901201514 | 36 | 20 | 3.2 | 4.8 | 0.00 | 0.00 | 0.00 | 46 | 1017.0 |
| 20260901201008 | 36 | 326 | 3.2 | 4.8 | 0.00 | 0.00 | 0.00 | 46 | 1017.0 |
| 20260901200503 | 35 | 226 | 0.0 | 3.2 | 0.00 | 0.00 | 0.00 | 48 | 1017.2 |
| 20260901200002 | 35 | 229 | 0.0 | 3.2 | 0.00 | 0.00 | 0.00 | 49 | 1017.1 |
| 20260901195500 | 35 | 235 | 1.6 | 3.2 | 0.00 | 0.00 | 0.00 | 49 | 1017.1 |
| 20260901194954 | 36 | 19 | 3.2 | 4.8 | 0.00 | 0.00 | 0.00 | 45 | 1017.1 |
| 20260901194450 | 36 | 221 | 0.0 | 3.2 | 0.00 | 0.00 | 0.00 | 45 | 1017.2 |
| 20260901193946 | 36 | 211 | 0.0 | 0.0 | 0.00 | 0.00 | 0.00 | 46 | 1017.3 |
| 20260901193445 | 36 | 0 | 4.8 | 4.8 | 0.00 | 0.00 | 0.00 | 45 | 1017.2 |
| 20260901192944 | 36 | 271 | 0.0 | 4.8 | 0.00 | 0.00 | 0.00 | 46 | 1017.1 |
| 20260901192440 | 36 | 228 | 0.0 | 3.2 | 0.00 | 0.00 | 0.00 | 45 | 1017.1 |
| 20260901191936 | 36 | 265 | 1.6 | 3.2 | 0.00 | 0.00 | 0.00 | 46 | 1017.3 |
| 20260901191432 | 36 | 219 | 0.0 | 1.6 | 0.00 | 0.00 | 0.00 | 44 | 1017.4 |
| 20260901190928 | 36 | 337 | 1.6 | 1.6 | 0.00 | 0.00 | 0.00 | 46 | 1017.4 |
| 20260901190427 | 36 | 157 | 0.0 | 3.2 | 0.00 | 0.00 | 0.00 | 46 | 1017.5 |
| 20260901185925 | 35 | 239 | 0.0 | 1.6 | 0.00 | 0.00 | 0.00 | 50 | 1017.6 |
| 20260901185426 | 36 | 232 | 0.0 | 1.6 | 0.00 | 0.00 | 0.00 | 44 | 1017.5 |
| 20260901184926 | 36 | 20 | 3.2 | 3.2 | 0.00 | 0.00 | 0.00 | 43 | 1017.6 |
| 20260901184421 | 36 | 253 | 1.6 | 3.2 | 0.00 | 0.00 | 0.00 | 45 | 1017.6 |
| 20260901183916 | 36 | 353 | 1.6 | 4.8 | 0.00 | 0.00 | 0.00 | 45 | 1017.9 |
| 20260901183416 | 36 | 24 | 4.8 | 6.4 | 0.00 | 0.00 | 0.00 | 46 | 1018.0 |
| 20260901182912 | 36 | 231 | 0.0 | 1.6 | 0.00 | 0.00 | 0.00 | 49 | 1018.2 |
| 20260901182408 | 36 | 206 | 3.2 | 4.8 | 0.00 | 0.00 | 0.00 | 48 | 1017.9 |
| 20260901181902 | 35 | 237 | 0.0 | 1.6 | 0.00 | 0.00 | 0.00 | 47 | 1017.8 |
| 20260901181356 | 36 | 53 | 3.2 | 3.2 | 0.00 | 0.00 | 0.00 | 44 | 1017.9 |
| 20260901180855 | 36 | 268 | 4.8 | 4.8 | 0.00 | 0.00 | 0.00 | 47 | 1017.9 |
| 20260901180354 | 35 | 235 | 0.0 | 1.6 | 0.00 | 0.00 | 0.00 | 48 | 1017.7 |
| 20260901175853 | 35 | 90 | 3.2 | 4.8 | 0.00 | 0.00 | 0.00 | 49 | 1017.7 |
| 20260901175348 | 35 | 238 | 1.6 | 4.8 | 0.00 | 0.00 | 0.00 | 49 | 1017.6 |